Regional Weather Roundup
Issued by NWS Goodland, KS

Home | Current Version | Previous Version | Text Only | Print | Product List | Glossary On
Versions: 1 2 3 4 5 6 7 8 9 10 11 12 13 14 15 16 17 18 19 20 21 22 23 24 25 26 27 28 29 30 31 32 33 34 35 36 37 38 39 40 41 42 43 44 45 46 47 48 49 50
000
ASUS43 KGLD 252108
RWRGLD

GOODLAND FORECAST AREA HOURLY WEATHER ROUNDUP
NATIONAL WEATHER SERVICE GOODLAND KS
300 PM MDT WED APR 25 2018

...OFFICIAL OBSERVATIONS...

CITY           SKY/WX    TMP DP  RH WIND       PRES   REMARKS
GOODLAND KS    SUNNY     58  32  37 N9        30.17F
HILL CITY KS   MOSUNNY   59  37  44 N13G23    30.17F
IMPERIAL NEB   SUNNY     59  29  31 SW5       30.15F
MCCOOK NEB     SUNNY     60  31  33 VRB5      30.14F
AKRON CO       SUNNY     58  28  32 MISG      30.16F
BURLINGTON CO  NOT AVBL
LIMON CO       SUNNY     58  21  24 VRB6      30.18F
$$

...UNOFFICIAL OBSERVATIONS...

CITY           SKY/WX    TMP DP  RH WIND       PRES   REMARKS
COLBY KS       SUNNY     57  34  41 N6        30.18F
NORTON KS      SUNNY     59  34  38 N6        30.15
SHARON SPRINGS   N/A     58  33  39 NW6G13      N/A
KIT CARSON CO    N/A     57  32  39 CALM        N/A
YUMA CO        FAIR      55  21  26 N6        30.15F
$$




USA.gov is the U.S. government's official web portal to all federal, state and local government web resources and services.